TIANLIAN 2-05

Last updated on Wed Sep 09 2026 00:03:04 GMT+0000 (Coordinated Universal Time)

1 63662U 25084A 26251.30658590 .00000100 00000+0 00000+0 0 9993 2 63662 4.2471 278.9333 0001101 201.5989 357.5692 1.00274264 5216
UTC large
Height (km)
Speed (km/s)
/
Latitude / Longitude
Inclination (degrees)
Orbital Period (minutes)
Azimuth
Elevation
Range (km)
Doppler Factor

Next 0 passes for location: London (51.5072 / 0.1276)

No passes found over London.
TIANLIAN 2-05